owner,sensor,date,latitude,longitude,vertical_datum,sea_water_practical_salinity,qcFlag 
TABS,ioos:station:wmo:42044:1,2009-12-01T00:00:00Z,26.1914,-97.0507,2.0,25.34,11111222 
TABS,ioos:station:wmo:42044:1,2009-12-01T00:30:00Z,26.1914,-97.0507,2.0,24.96,11111222 
TABS,ioos:station:wmo:42044:1,2009-12-01T01:00:00Z,26.1914,-97.0507,2.0,24.92,11111222 
TABS,ioos:station:wmo:42044:1,2009-12-01T01:30:00Z,26.1914,-97.0507,2.0,24.91,11111222 
TABS,ioos:station:wmo:42044:1,2009-12-01T02:00:00Z,26.1914,-97.0507,2.0,25.15,11111222 
TABS,ioos:station:wmo:42044:1,2009-12-01T02:30:00Z,26.1914,-97.0507,2.0,26.72,11111222 
TABS,ioos:station:wmo:42044:1,2009-12-01T03:00:00Z,26.1914,-97.0507,2.0,25.43,11111222 
TABS,ioos:station:wmo:42044:1,2009-12-01T03:30:00Z,26.1914,-97.0507,2.0,26.46,11111222 
TABS,ioos:station:wmo:42044:1,2009-12-01T04:00:00Z,26.1914,-97.0507,2.0,25.62,11111222 
TABS,ioos:station:wmo:42044:1,2009-12-01T04:30:00Z,26.1914,-97.0507,2.0,25.63,11111222 
TABS,ioos:station:wmo:42044:1,2009-12-01T05:00:00Z,26.1914,-97.0507,2.0,25.69,11111222 
TABS,ioos:station:wmo:42044:1,2009-12-01T05:30:00Z,26.1914,-97.0507,2.0,25.58,11111222 
TABS,ioos:station:wmo:42044:1,2009-12-01T06:00:00Z,26.1914,-97.0507,2.0,25.13,11111222 
TABS,ioos:station:wmo:42044:1,2009-12-01T06:30:00Z,26.1914,-97.0507,2.0,25.67,11111222 
TABS,ioos:station:wmo:42044:1,2009-12-01T07:00:00Z,26.1914,-97.0507,2.0,24.95,11111222 
TABS,ioos:station:wmo:42044:1,2009-12-01T07:30:00Z,26.1914,-97.0507,2.0,26.25,11111222 
TABS,ioos:station:wmo:42044:1,2009-12-01T08:00:00Z,26.1914,-97.0507,2.0,25.43,11111222 
TABS,ioos:station:wmo:42044:1,2009-12-01T08:30:00Z,26.1914,-97.0507,2.0,25.41,11111222 
TABS,ioos:station:wmo:42044:1,2009-12-01T09:00:00Z,26.1914,-97.0507,2.0,25.68,11111222 
TABS,ioos:station:wmo:42044:1,2009-12-01T09:30:00Z,26.1914,-97.0507,2.0,25.63,11111222 
TABS,ioos:station:wmo:42044:1,2009-12-01T10:00:00Z,26.1914,-97.0507,2.0,24.77,11111222 
TABS,ioos:station:wmo:42044:1,2009-12-01T10:30:00Z,26.1914,-97.0507,2.0,26.06,11111222 
TABS,ioos:station:wmo:42044:1,2009-12-01T11:00:00Z,26.1914,-97.0507,2.0,25.53,11111222 
TABS,ioos:station:wmo:42044:1,2009-12-01T11:30:00Z,26.1914,-97.0507,2.0,25.39,11111222 
TABS,ioos:station:wmo:42044:1,2009-12-01T12:00:00Z,26.1914,-97.0507,2.0,26.62,11111222 
TABS,ioos:station:wmo:42044:1,2009-12-01T12:30:00Z,26.1914,-97.0507,2.0,25.24,11111222 
TABS,ioos:station:wmo:42044:1,2009-12-01T13:00:00Z,26.1914,-97.0507,2.0,25.21,11111222 
TABS,ioos:station:wmo:42044:1,2009-12-01T13:30:00Z,26.1914,-97.0507,2.0,25.45,11111222 
TABS,ioos:station:wmo:42044:1,2009-12-01T14:00:00Z,26.1914,-97.0507,2.0,25.07,11111222 
TABS,ioos:station:wmo:42044:1,2009-12-01T14:30:00Z,26.1914,-97.0507,2.0,24.81,11111222 
TABS,ioos:station:wmo:42044:1,2009-12-01T15:00:00Z,26.1914,-97.0507,2.0,24.78,11111222 
TABS,ioos:station:wmo:42044:1,2009-12-01T15:30:00Z,26.1914,-97.0507,2.0,25.8,11111222 
TABS,ioos:station:wmo:42044:1,2009-12-01T16:00:00Z,26.1914,-97.0507,2.0,25.42,11111222 
TABS,ioos:station:wmo:42044:1,2009-12-01T16:30:00Z,26.1914,-97.0507,2.0,26.09,11111222 
TABS,ioos:station:wmo:42044:1,2009-12-01T17:00:00Z,26.1914,-97.0507,2.0,26.71,11111222 
TABS,ioos:station:wmo:42044:1,2009-12-01T17:30:00Z,26.1914,-97.0507,2.0,25.0,11111222 
TABS,ioos:station:wmo:42044:1,2009-12-01T18:00:00Z,26.1914,-97.0507,2.0,25.46,11111222 
TABS,ioos:station:wmo:42044:1,2009-12-01T18:30:00Z,26.1914,-97.0507,2.0,25.78,11111222 
TABS,ioos:station:wmo:42044:1,2009-12-01T19:00:00Z,26.1914,-97.0507,2.0,25.02,11111222 
TABS,ioos:station:wmo:42044:1,2009-12-01T19:30:00Z,26.1914,-97.0507,2.0,25.21,11111222 
TABS,ioos:station:wmo:42044:1,2009-12-01T20:00:00Z,26.1914,-97.0507,2.0,25.57,11111222 
TABS,ioos:station:wmo:42044:1,2009-12-01T20:30:00Z,26.1914,-97.0507,2.0,25.68,11111222 
TABS,ioos:station:wmo:42044:1,2009-12-01T21:00:00Z,26.1914,-97.0507,2.0,25.48,11111222 
TABS,ioos:station:wmo:42044:1,2009-12-01T21:30:00Z,26.1914,-97.0507,2.0,26.57,11111222 
TABS,ioos:station:wmo:42044:1,2009-12-01T22:00:00Z,26.1914,-97.0507,2.0,25.14,11111222 
TABS,ioos:station:wmo:42044:1,2009-12-01T22:30:00Z,26.1914,-97.0507,2.0,24.83,11111222 
TABS,ioos:station:wmo:42044:1,2009-12-01T23:00:00Z,26.1914,-97.0507,2.0,25.51,11111222 
TABS,ioos:station:wmo:42044:1,2009-12-01T23:30:00Z,26.1914,-97.0507,2.0,25.16,11111222 
TABS,ioos:station:wmo:42044:1,2009-12-02T00:00:00Z,26.1914,-97.0507,2.0,24.36,11111222 
TABS,ioos:station:wmo:42044:1,2009-12-02T00:30:00Z,26.1914,-97.0507,2.0,24.77,11111222 
TABS,ioos:station:wmo:42044:1,2009-12-02T01:00:00Z,26.1914,-97.0507,2.0,25.58,11111222 
TABS,ioos:station:wmo:42044:1,2009-12-02T01:30:00Z,26.1914,-97.0507,2.0,26.05,11111222 
TABS,ioos:station:wmo:42044:1,2009-12-02T02:00:00Z,26.1914,-97.0507,2.0,26.3,11111222 
TABS,ioos:station:wmo:42044:1,2009-12-02T02:30:00Z,26.1914,-97.0507,2.0,25.85,11111222 
TABS,ioos:station:wmo:42044:1,2009-12-02T03:00:00Z,26.1914,-97.0507,2.0,26.03,11111222 
TABS,ioos:station:wmo:42044:1,2009-12-02T03:30:00Z,26.1914,-97.0507,2.0,25.85,11111222 
TABS,ioos:station:wmo:42044:1,2009-12-02T04:00:00Z,26.1914,-97.0507,2.0,25.51,11111222 
TABS,ioos:station:wmo:42044:1,2009-12-02T04:30:00Z,26.1914,-97.0507,2.0,26.51,11111222 
TABS,ioos:station:wmo:42044:1,2009-12-02T05:00:00Z,26.1914,-97.0507,2.0,25.59,11111222 
TABS,ioos:station:wmo:42044:1,2009-12-02T05:30:00Z,26.1914,-97.0507,2.0,25.97,11111222 
TABS,ioos:station:wmo:42044:1,2009-12-02T06:00:00Z,26.1914,-97.0507,2.0,25.73,11111222 
TABS,ioos:station:wmo:42044:1,2009-12-02T06:30:00Z,26.1914,-97.0507,2.0,25.72,11111222 
TABS,ioos:station:wmo:42044:1,2009-12-02T07:00:00Z,26.1914,-97.0507,2.0,26.09,11111222 
TABS,ioos:station:wmo:42044:1,2009-12-02T07:30:00Z,26.1914,-97.0507,2.0,24.73,11111222 
TABS,ioos:station:wmo:42044:1,2009-12-02T08:00:00Z,26.1914,-97.0507,2.0,26.1,11111222 
TABS,ioos:station:wmo:42044:1,2009-12-02T08:30:00Z,26.1914,-97.0507,2.0,25.56,11111222 
TABS,ioos:station:wmo:42044:1,2009-12-02T09:00:00Z,26.1914,-97.0507,2.0,25.54,11111222 
TABS,ioos:station:wmo:42044:1,2009-12-02T09:30:00Z,26.1914,-97.0507,2.0,26.16,11111222 
TABS,ioos:station:wmo:42044:1,2009-12-02T10:00:00Z,26.1914,-97.0507,2.0,25.93,11111222 
TABS,ioos:station:wmo:42044:1,2009-12-02T10:30:00Z,26.1914,-97.0507,2.0,24.98,11111222 
TABS,ioos:station:wmo:42044:1,2009-12-02T11:00:00Z,26.1914,-97.0507,2.0,26.24,11111222 
TABS,ioos:station:wmo:42044:1,2009-12-02T11:30:00Z,26.1914,-97.0507,2.0,25.44,11111222 
TABS,ioos:station:wmo:42044:1,2009-12-02T12:00:00Z,26.1914,-97.0507,2.0,25.74,11111222 
TABS,ioos:station:wmo:42044:1,2009-12-02T12:30:00Z,26.1914,-97.0507,2.0,25.19,11111222 
TABS,ioos:station:wmo:42044:1,2009-12-02T13:00:00Z,26.1914,-97.0507,2.0,24.43,11111222 
TABS,ioos:station:wmo:42044:1,2009-12-02T13:30:00Z,26.1914,-97.0507,2.0,24.69,11111222 
TABS,ioos:station:wmo:42044:1,2009-12-02T14:00:00Z,26.1914,-97.0507,2.0,25.19,11111222 
TABS,ioos:station:wmo:42044:1,2009-12-02T14:30:00Z,26.1914,-97.0507,2.0,25.84,11111222 
TABS,ioos:station:wmo:42044:1,2009-12-02T15:00:00Z,26.1914,-97.0507,2.0,25.62,11111222 
TABS,ioos:station:wmo:42044:1,2009-12-02T15:30:00Z,26.1914,-97.0507,2.0,25.11,11111222 
TABS,ioos:station:wmo:42044:1,2009-12-02T16:00:00Z,26.1914,-97.0507,2.0,24.64,11111222 
TABS,ioos:station:wmo:42044:1,2009-12-02T16:30:00Z,26.1914,-97.0507,2.0,24.8,11111222 
TABS,ioos:station:wmo:42044:1,2009-12-02T17:00:00Z,26.1914,-97.0507,2.0,24.45,11111222 
TABS,ioos:station:wmo:42044:1,2009-12-02T17:30:00Z,26.1914,-97.0507,2.0,25.35,11111222 
TABS,ioos:station:wmo:42044:1,2009-12-02T18:00:00Z,26.1914,-97.0507,2.0,25.26,11111222 
TABS,ioos:station:wmo:42044:1,2009-12-02T18:30:00Z,26.1914,-97.0507,2.0,25.16,11111222 
TABS,ioos:station:wmo:42044:1,2009-12-02T19:00:00Z,26.1914,-97.0507,2.0,24.8,11111222 
TABS,ioos:station:wmo:42044:1,2009-12-02T19:30:00Z,26.1914,-97.0507,2.0,25.47,11111222 
TABS,ioos:station:wmo:42044:1,2009-12-02T20:00:00Z,26.1914,-97.0507,2.0,25.25,11111222 
TABS,ioos:station:wmo:42044:1,2009-12-02T20:30:00Z,26.1914,-97.0507,2.0,24.93,11111222 
TABS,ioos:station:wmo:42044:1,2009-12-02T21:00:00Z,26.1914,-97.0507,2.0,25.29,11111222 
TABS,ioos:station:wmo:42044:1,2009-12-02T21:30:00Z,26.1914,-97.0507,2.0,25.18,11111222 
TABS,ioos:station:wmo:42044:1,2009-12-02T22:00:00Z,26.1914,-97.0507,2.0,24.79,11111222 
TABS,ioos:station:wmo:42044:1,2009-12-02T22:30:00Z,26.1914,-97.0507,2.0,24.9,11111222 
TABS,ioos:station:wmo:42044:1,2009-12-02T23:00:00Z,26.1914,-97.0507,2.0,24.9,11111222 
TABS,ioos:station:wmo:42044:1,2009-12-02T23:30:00Z,26.1914,-97.0507,2.0,24.77,11111222 
TABS,ioos:station:wmo:42044:1,2009-12-03T00:00:00Z,26.1914,-97.0507,2.0,25.37,11111222 
TABS,ioos:station:wmo:42044:1,2009-12-03T00:30:00Z,26.1914,-97.0507,2.0,25.57,11111222 
TABS,ioos:station:wmo:42044:1,2009-12-03T01:00:00Z,26.1914,-97.0507,2.0,25.03,11111222 
TABS,ioos:station:wmo:42044:1,2009-12-03T01:30:00Z,26.1914,-97.0507,2.0,25.2,11111222 
TABS,ioos:station:wmo:42044:1,2009-12-03T02:00:00Z,26.1914,-97.0507,2.0,24.89,11111222 
TABS,ioos:station:wmo:42044:1,2009-12-03T02:30:00Z,26.1914,-97.0507,2.0,25.65,11111222 
TABS,ioos:station:wmo:42044:1,2009-12-03T03:00:00Z,26.1914,-97.0507,2.0,25.03,11111222 
TABS,ioos:station:wmo:42044:1,2009-12-03T03:30:00Z,26.1914,-97.0507,2.0,25.24,11111222 
TABS,ioos:station:wmo:42044:1,2009-12-03T04:00:00Z,26.1914,-97.0507,2.0,24.98,11111222 
TABS,ioos:station:wmo:42044:1,2009-12-03T04:30:00Z,26.1914,-97.0507,2.0,24.84,11111222 
TABS,ioos:station:wmo:42044:1,2009-12-03T05:00:00Z,26.1914,-97.0507,2.0,25.8,11111222 
TABS,ioos:station:wmo:42044:1,2009-12-03T05:30:00Z,26.1914,-97.0507,2.0,24.53,11111222 
TABS,ioos:station:wmo:42044:1,2009-12-03T06:00:00Z,26.1914,-97.0507,2.0,25.73,11111222 
TABS,ioos:station:wmo:42044:1,2009-12-03T06:30:00Z,26.1914,-97.0507,2.0,25.09,11111222 
TABS,ioos:station:wmo:42044:1,2009-12-03T07:00:00Z,26.1914,-97.0507,2.0,25.41,11111222 
TABS,ioos:station:wmo:42044:1,2009-12-03T07:30:00Z,26.1914,-97.0507,2.0,25.11,11111222 
TABS,ioos:station:wmo:42044:1,2009-12-03T08:00:00Z,26.1914,-97.0507,2.0,25.98,11111222 
TABS,ioos:station:wmo:42044:1,2009-12-03T08:30:00Z,26.1914,-97.0507,2.0,26.39,11111222 
TABS,ioos:station:wmo:42044:1,2009-12-03T09:00:00Z,26.1914,-97.0507,2.0,26.05,11111222 
TABS,ioos:station:wmo:42044:1,2009-12-03T09:30:00Z,26.1914,-97.0507,2.0,25.13,11111222 
TABS,ioos:station:wmo:42044:1,2009-12-03T10:00:00Z,26.1914,-97.0507,2.0,25.95,11111222 
TABS,ioos:station:wmo:42044:1,2009-12-03T10:30:00Z,26.1914,-97.0507,2.0,25.52,11111222 
TABS,ioos:station:wmo:42044:1,2009-12-03T11:00:00Z,26.1914,-97.0507,2.0,25.09,11111222 
TABS,ioos:station:wmo:42044:1,2009-12-03T11:30:00Z,26.1914,-97.0507,2.0,25.82,11111222 
TABS,ioos:station:wmo:42044:1,2009-12-03T12:00:00Z,26.1914,-97.0507,2.0,25.55,11111222 
TABS,ioos:station:wmo:42044:1,2009-12-03T12:30:00Z,26.1914,-97.0507,2.0,25.06,11111222 
TABS,ioos:station:wmo:42044:1,2009-12-03T13:00:00Z,26.1914,-97.0507,2.0,25.45,11111222 
TABS,ioos:station:wmo:42044:1,2009-12-03T13:30:00Z,26.1914,-97.0507,2.0,25.49,11111222 
TABS,ioos:station:wmo:42044:1,2009-12-03T14:00:00Z,26.1914,-97.0507,2.0,25.06,11111222 
TABS,ioos:station:wmo:42044:1,2009-12-03T14:30:00Z,26.1914,-97.0507,2.0,25.16,11111222 
TABS,ioos:station:wmo:42044:1,2009-12-03T15:00:00Z,26.1914,-97.0507,2.0,24.87,11111222 
TABS,ioos:station:wmo:42044:1,2009-12-03T15:30:00Z,26.1914,-97.0507,2.0,26.33,11111222 
TABS,ioos:station:wmo:42044:1,2009-12-03T16:00:00Z,26.1914,-97.0507,2.0,26.08,11111222 
TABS,ioos:station:wmo:42044:1,2009-12-03T16:30:00Z,26.1914,-97.0507,2.0,25.58,11111222 
TABS,ioos:station:wmo:42044:1,2009-12-03T17:00:00Z,26.1914,-97.0507,2.0,25.62,11111222 
TABS,ioos:station:wmo:42044:1,2009-12-03T17:30:00Z,26.1914,-97.0507,2.0,26.1,11111222 
TABS,ioos:station:wmo:42044:1,2009-12-03T18:00:00Z,26.1914,-97.0507,2.0,25.6,11111222 
TABS,ioos:station:wmo:42044:1,2009-12-03T18:30:00Z,26.1914,-97.0507,2.0,25.89,11111222 
TABS,ioos:station:wmo:42044:1,2009-12-03T19:00:00Z,26.1914,-97.0507,2.0,26.04,11111222 
TABS,ioos:station:wmo:42044:1,2009-12-03T19:30:00Z,26.1914,-97.0507,2.0,25.28,11111222 
TABS,ioos:station:wmo:42044:1,2009-12-03T20:00:00Z,26.1914,-97.0507,2.0,25.59,11111222 
TABS,ioos:station:wmo:42044:1,2009-12-03T20:30:00Z,26.1914,-97.0507,2.0,27.05,11111222 
TABS,ioos:station:wmo:42044:1,2009-12-03T21:00:00Z,26.1914,-97.0507,2.0,26.23,11111222 
TABS,ioos:station:wmo:42044:1,2009-12-03T21:30:00Z,26.1914,-97.0507,2.0,28.09,11111222 
TABS,ioos:station:wmo:42044:1,2009-12-03T22:00:00Z,26.1914,-97.0507,2.0,27.48,11111222 
TABS,ioos:station:wmo:42044:1,2009-12-03T22:30:00Z,26.1914,-97.0507,2.0,27.64,11111222 
TABS,ioos:station:wmo:42044:1,2009-12-03T23:00:00Z,26.1914,-97.0507,2.0,27.09,11111222 
TABS,ioos:station:wmo:42044:1,2009-12-03T23:30:00Z,26.1914,-97.0507,2.0,27.12,11111222 
TABS,ioos:station:wmo:42044:1,2009-12-04T00:00:00Z,26.1914,-97.0507,2.0,27.07,11111222 
TABS,ioos:station:wmo:42044:1,2009-12-04T00:30:00Z,26.1914,-97.0507,2.0,28.19,11111222 
TABS,ioos:station:wmo:42044:1,2009-12-04T01:00:00Z,26.1914,-97.0507,2.0,27.13,11111222 
TABS,ioos:station:wmo:42044:1,2009-12-04T01:30:00Z,26.1914,-97.0507,2.0,28.13,11111222 
TABS,ioos:station:wmo:42044:1,2009-12-04T02:00:00Z,26.1914,-97.0507,2.0,28.1,11111222 
TABS,ioos:station:wmo:42044:1,2009-12-04T02:30:00Z,26.1914,-97.0507,2.0,27.47,11111222 
TABS,ioos:station:wmo:42044:1,2009-12-04T03:00:00Z,26.1914,-97.0507,2.0,27.18,11111222 
TABS,ioos:station:wmo:42044:1,2009-12-04T03:30:00Z,26.1914,-97.0507,2.0,27.21,11111222 
TABS,ioos:station:wmo:42044:1,2009-12-04T04:00:00Z,26.1914,-97.0507,2.0,27.18,11111222 
TABS,ioos:station:wmo:42044:1,2009-12-04T04:30:00Z,26.1914,-97.0507,2.0,27.8,11111222 
TABS,ioos:station:wmo:42044:1,2009-12-04T05:00:00Z,26.1914,-97.0507,2.0,27.16,11111222 
TABS,ioos:station:wmo:42044:1,2009-12-04T05:30:00Z,26.1914,-97.0507,2.0,26.8,11111222 
TABS,ioos:station:wmo:42044:1,2009-12-04T06:00:00Z,26.1914,-97.0507,2.0,27.49,11111222 
TABS,ioos:station:wmo:42044:1,2009-12-04T06:30:00Z,26.1914,-97.0507,2.0,27.37,11111222 
TABS,ioos:station:wmo:42044:1,2009-12-04T07:00:00Z,26.1914,-97.0507,2.0,27.04,11111222 
TABS,ioos:station:wmo:42044:1,2009-12-04T07:30:00Z,26.1914,-97.0507,2.0,27.57,11111222 
TABS,ioos:station:wmo:42044:1,2009-12-04T08:00:00Z,26.1914,-97.0507,2.0,28.16,11111222 
TABS,ioos:station:wmo:42044:1,2009-12-04T08:30:00Z,26.1914,-97.0507,2.0,27.32,11111222 
TABS,ioos:station:wmo:42044:1,2009-12-04T09:30:00Z,26.1914,-97.0507,2.0,27.5,11111222 
TABS,ioos:station:wmo:42044:1,2009-12-04T10:00:00Z,26.1914,-97.0507,2.0,27.71,11111222 
TABS,ioos:station:wmo:42044:1,2009-12-04T10:30:00Z,26.1914,-97.0507,2.0,26.8,11111222 
TABS,ioos:station:wmo:42044:1,2009-12-04T11:00:00Z,26.1914,-97.0507,2.0,27.26,11111222 
TABS,ioos:station:wmo:42044:1,2009-12-04T11:30:00Z,26.1914,-97.0507,2.0,28.36,11111222 
TABS,ioos:station:wmo:42044:1,2009-12-04T12:00:00Z,26.1914,-97.0507,2.0,27.43,11111222 
TABS,ioos:station:wmo:42044:1,2009-12-04T12:30:00Z,26.1914,-97.0507,2.0,27.02,11111222 
TABS,ioos:station:wmo:42044:1,2009-12-04T13:00:00Z,26.1914,-97.0507,2.0,26.96,11111222 
TABS,ioos:station:wmo:42044:1,2009-12-04T13:30:00Z,26.1914,-97.0507,2.0,27.56,11111222 
TABS,ioos:station:wmo:42044:1,2009-12-04T14:00:00Z,26.1914,-97.0507,2.0,27.46,11111222 
TABS,ioos:station:wmo:42044:1,2009-12-04T14:30:00Z,26.1914,-97.0507,2.0,26.57,11111222 
TABS,ioos:station:wmo:42044:1,2009-12-04T15:00:00Z,26.1914,-97.0507,2.0,28.43,11111222 
TABS,ioos:station:wmo:42044:1,2009-12-04T15:30:00Z,26.1914,-97.0507,2.0,27.46,11111222 
TABS,ioos:station:wmo:42044:1,2009-12-04T16:00:00Z,26.1914,-97.0507,2.0,27.37,11111222 
TABS,ioos:station:wmo:42044:1,2009-12-04T16:30:00Z,26.1914,-97.0507,2.0,27.63,11111222 
TABS,ioos:station:wmo:42044:1,2009-12-04T17:00:00Z,26.1914,-97.0507,2.0,27.07,11111222 
TABS,ioos:station:wmo:42044:1,2009-12-04T17:30:00Z,26.1914,-97.0507,2.0,27.48,11111222 
TABS,ioos:station:wmo:42044:1,2009-12-04T18:00:00Z,26.1914,-97.0507,2.0,27.4,11111222 
TABS,ioos:station:wmo:42044:1,2009-12-04T18:30:00Z,26.1914,-97.0507,2.0,27.5,11111222 
TABS,ioos:station:wmo:42044:1,2009-12-04T19:00:00Z,26.1914,-97.0507,2.0,27.82,11111222 
TABS,ioos:station:wmo:42044:1,2009-12-04T19:30:00Z,26.1914,-97.0507,2.0,27.69,11111222 
TABS,ioos:station:wmo:42044:1,2009-12-04T20:00:00Z,26.1914,-97.0507,2.0,27.06,11111222 
TABS,ioos:station:wmo:42044:1,2009-12-04T20:30:00Z,26.1914,-97.0507,2.0,27.61,11111222 
TABS,ioos:station:wmo:42044:1,2009-12-04T21:00:00Z,26.1914,-97.0507,2.0,27.06,11111222 
TABS,ioos:station:wmo:42044:1,2009-12-04T21:30:00Z,26.1914,-97.0507,2.0,28.73,11111222 
TABS,ioos:station:wmo:42044:1,2009-12-04T22:00:00Z,26.1914,-97.0507,2.0,27.75,11111222 
TABS,ioos:station:wmo:42044:1,2009-12-04T22:30:00Z,26.1914,-97.0507,2.0,27.76,11111222 
TABS,ioos:station:wmo:42044:1,2009-12-04T23:00:00Z,26.1914,-97.0507,2.0,28.05,11111222 
TABS,ioos:station:wmo:42044:1,2009-12-04T23:30:00Z,26.1914,-97.0507,2.0,27.42,11111222 
TABS,ioos:station:wmo:42044:1,2009-12-05T00:00:00Z,26.1914,-97.0507,2.0,27.8,11111222 
TABS,ioos:station:wmo:42044:1,2009-12-05T00:30:00Z,26.1914,-97.0507,2.0,26.67,11111222 
TABS,ioos:station:wmo:42044:1,2009-12-05T01:00:00Z,26.1914,-97.0507,2.0,27.3,11111222 
TABS,ioos:station:wmo:42044:1,2009-12-05T01:30:00Z,26.1914,-97.0507,2.0,27.39,11111222 
TABS,ioos:station:wmo:42044:1,2009-12-05T02:00:00Z,26.1914,-97.0507,2.0,27.24,11111222 
TABS,ioos:station:wmo:42044:1,2009-12-05T02:30:00Z,26.1914,-97.0507,2.0,26.69,11111222 
TABS,ioos:station:wmo:42044:1,2009-12-05T03:00:00Z,26.1914,-97.0507,2.0,27.66,11111222 
TABS,ioos:station:wmo:42044:1,2009-12-05T03:30:00Z,26.1914,-97.0507,2.0,27.79,11111222 
TABS,ioos:station:wmo:42044:1,2009-12-05T04:00:00Z,26.1914,-97.0507,2.0,26.45,11111222 
TABS,ioos:station:wmo:42044:1,2009-12-05T04:30:00Z,26.1914,-97.0507,2.0,25.9,11111222 
TABS,ioos:station:wmo:42044:1,2009-12-05T05:00:00Z,26.1914,-97.0507,2.0,26.67,11111222 
TABS,ioos:station:wmo:42044:1,2009-12-05T05:30:00Z,26.1914,-97.0507,2.0,26.73,11111222 
TABS,ioos:station:wmo:42044:1,2009-12-05T06:00:00Z,26.1914,-97.0507,2.0,26.08,11111222 
TABS,ioos:station:wmo:42044:1,2009-12-05T06:30:00Z,26.1914,-97.0507,2.0,26.52,11111222 
TABS,ioos:station:wmo:42044:1,2009-12-05T07:00:00Z,26.1914,-97.0507,2.0,27.47,11111222 
TABS,ioos:station:wmo:42044:1,2009-12-05T07:30:00Z,26.1914,-97.0507,2.0,28.12,11111222 
TABS,ioos:station:wmo:42044:1,2009-12-05T08:00:00Z,26.1914,-97.0507,2.0,26.05,11111222 
TABS,ioos:station:wmo:42044:1,2009-12-05T08:30:00Z,26.1914,-97.0507,2.0,27.16,11111222 
TABS,ioos:station:wmo:42044:1,2009-12-05T09:00:00Z,26.1914,-97.0507,2.0,26.96,11111222 
TABS,ioos:station:wmo:42044:1,2009-12-05T09:30:00Z,26.1914,-97.0507,2.0,26.36,11111222 
TABS,ioos:station:wmo:42044:1,2009-12-05T10:00:00Z,26.1914,-97.0507,2.0,26.59,11111222 
TABS,ioos:station:wmo:42044:1,2009-12-05T10:30:00Z,26.1914,-97.0507,2.0,26.51,11111222 
TABS,ioos:station:wmo:42044:1,2009-12-05T11:00:00Z,26.1914,-97.0507,2.0,25.8,11111222 
TABS,ioos:station:wmo:42044:1,2009-12-05T11:30:00Z,26.1914,-97.0507,2.0,26.34,11111222 
TABS,ioos:station:wmo:42044:1,2009-12-05T12:00:00Z,26.1914,-97.0507,2.0,26.11,11111222 
TABS,ioos:station:wmo:42044:1,2009-12-05T12:30:00Z,26.1914,-97.0507,2.0,27.05,11111222 
TABS,ioos:station:wmo:42044:1,2009-12-05T13:00:00Z,26.1914,-97.0507,2.0,25.28,11111222 
TABS,ioos:station:wmo:42044:1,2009-12-05T13:30:00Z,26.1914,-97.0507,2.0,26.67,11111222 
TABS,ioos:station:wmo:42044:1,2009-12-05T14:00:00Z,26.1914,-97.0507,2.0,26.57,11111222 
TABS,ioos:station:wmo:42044:1,2009-12-05T14:30:00Z,26.1914,-97.0507,2.0,25.73,11111222 
TABS,ioos:station:wmo:42044:1,2009-12-05T15:00:00Z,26.1914,-97.0507,2.0,25.71,11111222 
TABS,ioos:station:wmo:42044:1,2009-12-05T15:30:00Z,26.1914,-97.0507,2.0,26.89,11111222 
TABS,ioos:station:wmo:42044:1,2009-12-05T16:00:00Z,26.1914,-97.0507,2.0,27.41,11111222 
TABS,ioos:station:wmo:42044:1,2009-12-05T16:30:00Z,26.1914,-97.0507,2.0,27.28,11111222 
TABS,ioos:station:wmo:42044:1,2009-12-05T17:00:00Z,26.1914,-97.0507,2.0,26.19,11111222 
TABS,ioos:station:wmo:42044:1,2009-12-05T17:30:00Z,26.1914,-97.0507,2.0,27.37,11111222 
TABS,ioos:station:wmo:42044:1,2009-12-05T18:00:00Z,26.1914,-97.0507,2.0,26.87,11111222 
TABS,ioos:station:wmo:42044:1,2009-12-05T18:30:00Z,26.1914,-97.0507,2.0,25.7,11111222 
TABS,ioos:station:wmo:42044:1,2009-12-05T19:00:00Z,26.1914,-97.0507,2.0,26.55,11111222 
TABS,ioos:station:wmo:42044:1,2009-12-05T19:30:00Z,26.1914,-97.0507,2.0,25.99,11111222 
TABS,ioos:station:wmo:42044:1,2009-12-05T20:00:00Z,26.1914,-97.0507,2.0,25.94,11111222 
TABS,ioos:station:wmo:42044:1,2009-12-05T20:30:00Z,26.1914,-97.0507,2.0,26.08,11111222 
TABS,ioos:station:wmo:42044:1,2009-12-05T21:00:00Z,26.1914,-97.0507,2.0,27.28,11111222 
TABS,ioos:station:wmo:42044:1,2009-12-05T21:30:00Z,26.1914,-97.0507,2.0,26.09,11111222 
TABS,ioos:station:wmo:42044:1,2009-12-05T22:00:00Z,26.1914,-97.0507,2.0,26.43,11111222 
TABS,ioos:station:wmo:42044:1,2009-12-05T22:30:00Z,26.1914,-97.0507,2.0,27.15,11111222 
TABS,ioos:station:wmo:42044:1,2009-12-05T23:00:00Z,26.1914,-97.0507,2.0,26.17,11111222 
TABS,ioos:station:wmo:42044:1,2009-12-05T23:30:00Z,26.1914,-97.0507,2.0,26.14,11111222 
TABS,ioos:station:wmo:42044:1,2009-12-06T00:00:00Z,26.1914,-97.0507,2.0,27.21,11111222 
TABS,ioos:station:wmo:42044:1,2009-12-06T00:30:00Z,26.1914,-97.0507,2.0,26.25,11111222 
TABS,ioos:station:wmo:42044:1,2009-12-06T01:00:00Z,26.1914,-97.0507,2.0,26.35,11111222 
TABS,ioos:station:wmo:42044:1,2009-12-06T01:30:00Z,26.1914,-97.0507,2.0,27.24,11111222 
TABS,ioos:station:wmo:42044:1,2009-12-06T02:00:00Z,26.1914,-97.0507,2.0,26.91,11111222 
TABS,ioos:station:wmo:42044:1,2009-12-06T02:30:00Z,26.1914,-97.0507,2.0,26.94,11111222 
TABS,ioos:station:wmo:42044:1,2009-12-06T03:00:00Z,26.1914,-97.0507,2.0,26.62,11111222 
TABS,ioos:station:wmo:42044:1,2009-12-06T03:30:00Z,26.1914,-97.0507,2.0,26.14,11111222 
TABS,ioos:station:wmo:42044:1,2009-12-06T04:00:00Z,26.1914,-97.0507,2.0,25.34,11111222 
TABS,ioos:station:wmo:42044:1,2009-12-06T04:30:00Z,26.1914,-97.0507,2.0,25.87,11111222 
TABS,ioos:station:wmo:42044:1,2009-12-06T05:00:00Z,26.1914,-97.0507,2.0,26.52,11111222 
TABS,ioos:station:wmo:42044:1,2009-12-06T05:30:00Z,26.1914,-97.0507,2.0,26.33,11111222 
TABS,ioos:station:wmo:42044:1,2009-12-06T06:00:00Z,26.1914,-97.0507,2.0,25.86,11111222 
TABS,ioos:station:wmo:42044:1,2009-12-06T06:30:00Z,26.1914,-97.0507,2.0,26.94,11111222 
TABS,ioos:station:wmo:42044:1,2009-12-06T07:00:00Z,26.1914,-97.0507,2.0,26.15,11111222 
TABS,ioos:station:wmo:42044:1,2009-12-06T07:30:00Z,26.1914,-97.0507,2.0,26.0,11111222 
TABS,ioos:station:wmo:42044:1,2009-12-06T08:00:00Z,26.1914,-97.0507,2.0,26.05,11111222 
TABS,ioos:station:wmo:42044:1,2009-12-06T08:30:00Z,26.1914,-97.0507,2.0,27.15,11111222 
TABS,ioos:station:wmo:42044:1,2009-12-06T09:00:00Z,26.1914,-97.0507,2.0,26.25,11111222 
TABS,ioos:station:wmo:42044:1,2009-12-06T09:30:00Z,26.1914,-97.0507,2.0,26.66,11111222 
TABS,ioos:station:wmo:42044:1,2009-12-06T10:00:00Z,26.1914,-97.0507,2.0,27.36,11111222 
TABS,ioos:station:wmo:42044:1,2009-12-06T10:30:00Z,26.1914,-97.0507,2.0,27.08,11111222 
TABS,ioos:station:wmo:42044:1,2009-12-06T11:00:00Z,26.1914,-97.0507,2.0,28.34,11111222 
TABS,ioos:station:wmo:42044:1,2009-12-06T11:30:00Z,26.1914,-97.0507,2.0,26.16,11111222 
TABS,ioos:station:wmo:42044:1,2009-12-06T12:00:00Z,26.1914,-97.0507,2.0,26.92,11111222 
TABS,ioos:station:wmo:42044:1,2009-12-06T12:30:00Z,26.1914,-97.0507,2.0,27.41,11111222 
TABS,ioos:station:wmo:42044:1,2009-12-06T13:00:00Z,26.1914,-97.0507,2.0,27.57,11111222 
TABS,ioos:station:wmo:42044:1,2009-12-06T13:30:00Z,26.1914,-97.0507,2.0,27.35,11111222 
TABS,ioos:station:wmo:42044:1,2009-12-06T14:30:00Z,26.1914,-97.0507,2.0,25.96,11111222 
TABS,ioos:station:wmo:42044:1,2009-12-06T15:00:00Z,26.1914,-97.0507,2.0,26.28,11111222 
TABS,ioos:station:wmo:42044:1,2009-12-06T15:30:00Z,26.1914,-97.0507,2.0,27.24,11111222 
TABS,ioos:station:wmo:42044:1,2009-12-06T16:00:00Z,26.1914,-97.0507,2.0,26.46,11111222 
TABS,ioos:station:wmo:42044:1,2009-12-06T17:00:00Z,26.1914,-97.0507,2.0,26.91,11111222 